Location: Bryant Hill
(40.4167°S, 175.6667°E)
Time: 10:55:11
(UTC+00:00)

Daily predictions for brighter satellites

Satellite Brightness Start Highest point End
(mag) Time Altitude Azimuth Time Altitude Azimuth Time Altitude Azimuth
ALOS 2 4.3 12:08:05 10° SSE 12:10:34 28° SE 12:10:34 28° SE
ATLAS 3B R/B 4.0 12:17:04 10° SSW 12:22:37 32° SE 12:27:40 13° ENE
NOSS 3-1 (A) 4.3 12:18:34 10° SW 12:22:39 35° WSW 12:22:39 35° WSW
Cosmos 2154 Rocket 4.2 12:27:07 61° E 12:27:09 61° E 12:33:23 10° SSE
IDEFIX/ARIANE 42P 3.3 12:33:56 45° ESE 12:33:57 45° ESE 12:38:57 10° S
Cosmos 2181 Rocket 4.0 12:28:23 10° S 12:34:52 80° W 12:34:52 80° W
Cosmos 2297 Rocket 2.5 12:35:59 60° ESE 12:35:59 60° ESE 12:40:54 10° SSE
Cosmos 2322 3.9 12:30:09 10° SSW 12:35:06 65° SW 12:35:06 65° SW
COSMOS 2428 2.8 12:31:21 10° SSW 12:36:29 72° SSW 12:36:29 72° SSW
Cosmos 1295 Rocket 4.4 12:37:39 88° W 12:37:40 88° WSW 12:44:03 10° S
Spot 4 4.4 12:42:59 10° S 12:46:54 55° SSW 12:46:54 55° SSW
Cosmos 2237 Rocket 2.9 12:44:22 10° SSW 12:49:56 48° ESE 12:50:59 43° E
ARIANE 5 R/B 3.9 12:50:47 10° S 12:54:02 37° SW 12:54:02 37° SW
Meteor 1-21 4.2 12:51:55 10° S 12:57:35 79° ESE 12:57:35 79° ESE
Cosmos 1538 Rocket 4.3 13:02:27 64° ESE 13:02:27 64° ESE 13:07:21 10° SSE
SeaSat 1 4.4 13:05:03 19° WSW 13:05:03 19° WSW 13:06:51 10° SW
Meteor 2-13 Rocket 4.4 12:57:26 10° SSW 13:03:26 68° W 13:03:26 68° W
Cosmos 1610 Rocket 4.3 13:09:46 82° NNW 13:10:04 88° W 13:16:20 10° S
USA 267 4.0 13:14:57 36° W 13:14:57 36° W 13:19:21 10° WSW
Nadezhda 3 Rocket 3.9 13:07:36 10° S 13:13:58 76° W 13:14:19 74° NW
Sich 1 4.0 13:15:28 45° S 13:15:28 45° S 13:18:31 10° S
Cosmos 2074 Rocket 4.4 13:14:02 49° W 13:14:22 49° WSW 13:20:32 10° S
ADEOS II 3.8 13:17:17 17° ENE 13:20:10 28° ESE 13:24:37 10° S
Cosmos 2227 Rocket 2.2 13:23:28 72° ENE 13:23:35 72° ENE 13:29:18 10° SSE
CZ-2C R/B 3.3 13:20:22 10° SSE 13:25:24 43° E 13:25:54 42° ENE
ARGOS Delta rocket 4.0 13:27:21 63° SSE 13:27:21 63° SSE 13:31:15 10° S
MSX 4.0 13:30:13 57° W 13:30:13 57° W 13:35:45 10° SSW
NOSS 0 Rocket 4.3 13:24:27 10° SW 13:29:45 47° W 13:29:45 47° W
Cosmos 1805 Rocket 4.0 13:32:21 59° S 13:32:21 59° S 13:36:05 10° S
FENGYUN 3A 3.5 13:33:28 79° WNW 13:33:32 79° WNW 13:39:03 10° SSW
Cosmos 1339 Rocket 4.3 13:27:33 10° SSW 13:33:43 72° W 13:34:15 68° NW
ATLAS 2AS CENTAUR R/B 4.2 13:34:58 19° W 13:38:55 30° SW 13:45:13 10° SSE
H-2A R/B 3.5 13:41:11 28° E 13:42:18 33° ESE 13:46:05 10° S
NPP 4.0 13:45:32 49° W 13:45:32 49° W 13:50:24 10° SSW
ARIANE 6 FM1 Upper Stage 4.4 13:46:45 25° ENE 13:46:45 25° ENE 13:50:07 10° ESE
Cosmos 962 Rocket 4.4 13:46:37 61° NW 13:47:33 71° W 13:53:48 10° S
Cosmos 923 Rocket 3.9 13:47:42 72° NE 13:48:04 75° ENE 13:53:19 10° SSE
Cosmos 44 3.5 13:48:08 59° WSW 13:48:19 59° SW 13:53:12 10° SSE
Cosmos 2263 Rocket 2.3 13:51:06 58° NNE 13:52:00 68° ENE 13:57:42 10° SSE
SL-8 Rocket 3.9 13:50:58 58° NNW 13:52:19 83° W 13:58:42 10° S
CZ-2D R/B 2.1 13:52:09 53° NNE 13:53:25 78° ESE 13:58:49 10° S
Cosmos 1959 Rocket 4.4 13:52:43 53° N 13:54:17 80° E 14:00:29 10° S
ACS3 Solar Sail 3.5 13:49:10 10° NE 13:54:31 31° ESE 13:59:53 10° S
SL-16 R/B 3.2 13:49:31 10° SSW 13:55:01 45° ESE 14:00:28 10° NE
USA 229 DEB 3.2 13:49:39 10° SW 13:55:56 66° WNW 13:56:34 61° NNW
USA 229 3.2 13:49:54 10° SW 13:56:11 66° WNW 13:56:50 61° NNW
Meteor 2-10 Rocket 3.4 13:57:00 68° WNW 13:57:23 71° W 14:02:45 10° S
Resurs 1-4 Rocket 2.0 13:57:11 61° N 13:58:10 88° WNW 14:03:34 10° SSW
Cosmos 1821 Rocket 4.3 13:56:40 39° NNE 13:59:04 64° E 14:05:24 10° SSE
Cosmos 1633 Rocket 3.7 13:59:04 44° ENE 13:59:37 47° E 14:03:51 10° SSE
Meteor 2-19 Rocket 4.3 13:53:53 10° S 14:00:02 81° W 14:01:36 53° N
Tiangong 0.2 14:03:01 21° E 14:03:01 21° E 14:04:17 10° E
Cosmos 2219 3.6 14:00:53 45° NNE 14:02:19 57° ENE 14:07:58 10° SSE
H-2A R/B 3.4 14:00:51 12° NE 14:05:06 37° ESE 14:09:55 10° S
Cosmos 2366 rocket 3.9 14:04:07 52° NNW 14:05:40 73° W 14:12:02 10° S
Okean 1-7 3.9 14:02:43 10° S 14:06:46 44° E 14:07:57 35° ENE
Cosmos 1862 Rocket 3.9 14:03:59 10° S 14:08:23 62° E 14:09:15 50° NE
Cosmos 2228 Rocket 3.7 14:07:14 10° S 14:11:37 51° E 14:13:08 34° NE
Okean 3 4.4 14:09:12 10° SSW 14:12:00 33° SW 14:12:00 33° SW
ATLAS 3B R/B 2.6 14:07:20 10° SW 14:13:27 53° WNW 14:14:47 46° NNW
IDEFIX/ARIANE 42P 4.1 14:14:37 21° WSW 14:14:37 21° WSW 14:17:36 10° SW
GEOS 3 Rocket 3.6 14:10:10 10° SE 14:15:15 70° NE 14:16:21 53° N
Cosmos 724 4.3 14:16:26 48° N 14:18:03 72° ENE 14:23:50 10° SE
Cosmos 2297 Rocket 4.0 14:17:45 17° WSW 14:19:46 20° SW 14:23:53 10° S
H-2A R/B 4.4 14:22:01 10° SE 14:24:52 20° E 14:26:38 15° NE
Cosmos 2218 Rocket 4.3 14:25:57 40° NW 14:27:53 53° W 14:34:13 10° S
Cosmos 494 Rocket 3.9 14:26:54 47° N 14:28:28 84° ENE 14:33:44 10° SSE
NOAA 11 4.4 14:29:04 44° NW 14:29:56 47° W 14:35:14 10° SSW
Cosmos 1680 Rocket 3.6 14:28:41 47° NW 14:30:01 63° WSW 14:35:21 10° SSE
Cosmos 1607 4.0 14:29:01 39° NNW 14:31:36 81° ENE 14:38:04 10° SE
Cosmos 2237 Rocket 3.5 14:29:08 10° SW 14:32:45 23° W 14:32:45 23° W
Cosmos 1707 Rocket 3.5 14:30:23 10° SSW 14:34:44 67° W 14:35:27 56° NNW
ALOS 2.4 14:37:57 47° NW 14:38:32 50° W 14:43:03 10° SSW
Cosmos 1420 Rocket 4.1 14:33:39 10° SSW 14:38:47 56° WNW 14:40:22 40° NNW
Meteor 2-5 Rocket 4.4 14:33:04 10° S 14:38:57 57° ESE 14:44:49 10° NNE
Cosmos 1624 Rocket 4.0 14:35:47 10° SSW 14:41:09 87° ESE 14:45:41 14° NNE
Cosmos 1818 3.7 14:41:19 10° SSW 14:46:45 75° ESE 14:52:08 10° NE
Cosmos 1666 Rocket 4.1 14:46:36 37° W 14:47:14 40° WSW 14:51:25 10° S
Cosmos 1048 Rocket 4.3 14:44:32 28° N 14:47:21 65° ENE 14:52:44 10° SSE
Cosmos 1328 4.0 14:44:10 10° S 14:47:48 59° E 14:49:44 25° NNE
Meteor 1-22 Rocket 4.4 14:47:13 31° NNW 14:50:13 71° W 14:56:13 10° S
USA 308 2.4 14:47:48 10° SW 14:51:02 83° SE 14:55:08 10° NE
Meteor 2-14 Rocket 4.4 14:49:04 10° SSW 14:55:15 70° W 14:59:41 20° N
SL-4 R/B 4.3 14:53:22 10° SW 14:56:42 24° SSE 14:59:54 10° ESE
ADEOS II 2.7 14:58:06 31° NW 14:59:32 37° W 15:04:26 10° SSW
Envisat 3.8 15:00:16 29° WNW 15:01:14 31° W 15:05:48 10° SSW
Cosmos 1900 4.3 14:58:56 31° NNW 15:01:16 78° ENE 15:06:09 10° SSE
CZ-2C R/B 4.0 15:01:10 10° SSW 15:05:20 24° WSW 15:07:22 19° W
Cosmos 2227 Rocket 4.0 15:05:15 13° W 15:08:13 19° SW 15:12:08 10° S
METEOR-M 4.3 15:08:12 20° NNW 15:11:40 50° W 15:16:55 10° SSW
Cosmos 381 Rocket 4.5 15:09:21 21° NNW 15:13:50 84° WSW 15:20:15 10° SSE
ADEOS Rocket 3.6 15:06:15 10° N 15:13:52 58° W 15:21:07 10° SSW
Cosmos 1703 Rocket 3.4 15:09:46 10° S 15:14:09 82° W 15:18:08 12° N
Cosmos 1867 3.6 15:11:53 23° NNW 15:15:23 77° ENE 15:20:48 10° SE
H-2A R/B 3.4 15:17:36 20° W 15:17:41 20° W 15:20:49 10° SW
MOS 1-B Rocket 4.4 15:10:24 10° NNE 15:17:52 87° ESE 15:24:18 10° SSW
ARGOS 3.3 15:12:34 10° NNE 15:17:59 79° ESE 15:23:25 10° S
CZ-2C R/B 2.8 15:14:16 10° NNE 15:19:14 67° ESE 15:24:08 10° S
Meteor 2-8 Rocket 4.4 15:16:15 14° N 15:21:34 83° W 15:27:47 10° S
Cosmos 2227 4.2 15:17:29 19° NNW 15:21:41 85° ENE 15:27:23 10° SSE
Cosmos 1953 2.7 15:23:09 27° NW 15:24:36 39° WSW 15:28:08 10° S
ARIANE 6 FM1 Upper Stage 3.7 15:22:48 20° WNW 15:25:19 38° SW 15:29:34 10° SSE
Cosmos 1844 3.9 15:20:58 14° NNW 15:25:41 70° ENE 15:31:19 10° SSE
Meteor 1-12 Rocket 4.3 15:22:38 13° N 15:27:57 83° W 15:33:48 10° S
Cosmos 2056 Rocket 4.3 15:25:26 10° SW 15:30:08 32° W 15:34:01 14° NNW
Meteor 1-24 Rocket 4.2 15:25:27 10° SSW 15:31:17 48° W 15:36:58 10° NNW
PAYLOAD A 4.1 15:26:35 10° NNE 15:31:23 73° ESE 15:36:09 10° S
Meteor 1-16 Rocket 4.1 15:28:00 14° NNW 15:32:48 72° W 15:38:14 10° S
Delta 2 Rocket 3.5 15:32:14 25° NW 15:33:01 29° N 15:35:44 10° NE
CZ-2D R/B 3.9 15:33:24 12° W 15:33:59 13° W 15:36:13 10° WSW
CZ-4C R/B 3.2 15:28:53 16° NW 15:36:26 81° SW 15:44:01 10° SSE
Cosmos 2263 Rocket 3.9 15:32:45 11° W 15:36:26 20° SW 15:40:33 10° S
ACS3 Solar Sail 2.2 15:31:19 10° NNW 15:37:13 43° W 15:43:09 10° SSW
Tiangong -2.0 15:35:21 14° W 15:38:00 56° NNW 15:41:13 10° ENE
SL-16 R/B 3.2 15:34:13 10° SW 15:38:47 25° WNW 15:42:43 12° NNW
Cosmos 1844 Rocket 2.7 15:34:04 14° NNW 15:38:57 82° WSW 15:44:42 10° SSE
Cosmos 1605 Rocket 4.1 15:33:58 10° N 15:40:17 84° E 15:46:47 10° S
Cosmos 1933 Rocket 4.1 15:40:05 16° NW 15:43:18 42° WSW 15:47:36 10° S
H-2A R/B 3.1 15:41:21 15° NW 15:44:27 26° W 15:48:48 10° SW
H-2A R/B 3.3 15:43:32 10° NNE 15:47:24 83° ESE 15:51:21 10° SSW
SL-08 RB Rocket 3.6 15:45:24 10° N 15:49:50 83° WNW 15:54:20 10° SSW
Cosmos 614 Rocket 3.9 15:44:58 10° NNW 15:49:58 81° WSW 15:55:07 10° SSE
Spot 2 4.3 15:48:13 10° S 15:52:41 55° WSW 15:56:50 10° NNW
ATLAS CENTAUR R/B 0.9 15:51:32 16° NW 15:53:38 47° SW 15:56:32 10° SSE
Cosmos 1939 Rocket 3.1 15:53:19 10° NNE 15:57:00 68° ESE 16:00:43 10° S
H-2A R/B 3.5 15:55:53 10° SSW 15:58:58 25° WSW 16:01:49 11° WNW
Cosmos 1110 Rocket 4.3 15:57:53 10° SSW 16:02:51 44° WNW 16:07:49 10° N
BREEZE-M DEB (TANK) 3.4 15:50:35 10° WSW 16:03:19 76° NW 16:06:57 10° NE
MOZ.5/SAFIR/RUBIN 5/SL-8 4.4 16:01:34 10° S 16:05:54 40° WSW 16:10:13 10° NW
Cosmos 1302 Rocket 4.3 16:01:03 10° SSW 16:06:22 76° ESE 16:11:34 10° NNE
Cosmos 1869 Rocket 4.4 16:03:03 10° NW 16:07:09 35° WSW 16:11:18 10° S
USA 308 4.2 16:13:00 10° W 16:15:19 16° NW 16:17:46 10° NNW
Cosmos 2242 Rocket 3.6 16:15:54 10° SSW 16:20:23 74° W 16:24:46 10° N
